Overview Statistics Trail Chart Weather Telemetry Raw packets
 

This is the latest recevied weather packets stored in our database for station/object SV9TNF-56. If no packets are shown the sender has not sent any weather packets the latest 10 day(s).

<< 1 2 3 4 5 6 7 >>
Time Temp. Humidity Pressure Rain* Wind** Luminosity Snow
1788647274 23.33° C 67% 1013.9 hPa 0 mm 3.13 m/s, 296° - -
1788646974 23.89° C 68% 1013.6 hPa 0 mm 5.81 m/s, 269° - -
1788646675 23.89° C 67% 1013.9 hPa 0 mm 4.47 m/s, 265° - -
1788646374 23.33° C 67% 1013.9 hPa 0 mm 3.13 m/s, 264° - -
1788646074 23.33° C 67% 1013.6 hPa 0 mm 4.92 m/s, 312° - -
1788645774 23.33° C 68% 1013.9 hPa 0 mm 3.13 m/s, 276° - -
1788645474 23.89° C 69% 1013.9 hPa 0 mm 7.15 m/s, 290° - -
1788645174 23.89° C 69% 1014.2 hPa 0 mm 12.52 m/s, 284° - -
1788644874 23.89° C 68% 1013.9 hPa 0 mm 15.2 m/s, 322° - -
1788644574 23.89° C 66% 1013.9 hPa 0 mm 12.96 m/s, 282° - -
1788644274 23.89° C 66% 1013.9 hPa 0 mm 8.05 m/s, 258° - -
1788643974 23.89° C 65% 1014.2 hPa 0 mm 16.99 m/s, 288° - -
1788643673 23.89° C 67% 1014.2 hPa 0 mm 18.33 m/s, 276° - -
1788643373 23.89° C 68% 1014.2 hPa 0 mm 16.99 m/s, 246° - -
1788643073 23.89° C 68% 1014.2 hPa 0 mm 22.8 m/s, 268° - -
1788642773 23.89° C 64% 1014.2 hPa 0 mm 13.41 m/s, 274° - -
1788642473 23.89° C 65% 1014.2 hPa 0 mm 21.01 m/s, 290° - -
1788642173 23.89° C 66% 1014.2 hPa 0 mm 21.01 m/s, 277° - -
1788641873 23.89° C 66% 1014.2 hPa 0 mm 15.2 m/s, 294° - -
1788641573 23.89° C 67% 1014.2 hPa 0 mm 16.99 m/s, 289° - -
1788641273 23.89° C 69% 1014.6 hPa 0 mm 14.31 m/s, 285° - -
1788640973 24.44° C 65% 1014.2 hPa 0 mm 13.41 m/s, 240° - -
1788640673 24.44° C 63% 1014.2 hPa 0 mm 11.18 m/s, 282° - -
1788640372 24.44° C 60% 1013.9 hPa 0 mm 12.07 m/s, 300° - -
1788640073 25° C 55% 1014.2 hPa 0 mm 15.2 m/s, 274° - -

* Rain latest hour (hover to see other rain measurements)
** Current wind speed in m/s (hover to see current wind gust speed)